Tracking 20721 objects as of 1-Jun-2020
HD Live streaming from Space Station
objects crossing your sky now

SL-8 DEB *

Track SL-8 DEB * now!
10-day predictions


NORAD ID: 14865
Int'l Code: 1975-094E
Perigee: 681.1 km
Apogee: 686.7 km
Inclination: 74.0 °
Period: 98.3 minutes
Semi major axis: 7054 km
RCS: 0.0088 m2 (small)
Launch date: September 30, 1975
Source: Commonwealth of Independent States (former USSR) (CIS)
Launch site: PLESETSK MISSILE AND SPACE COMPLEX (PKMTR)

Note: This is SATELLITE DEBRIS
aabbcc
Your satellite tracking list
Your tracking list is empty




NASA's NSSDC Master Catalog

Two Line Element Set (TLE):
1 14865U 75094E   20151.40967686 +.00000268 +00000-0 +55692-4 0  9991
2 14865 074.0245 154.8552 0003966 312.0589 117.4859 14.65085565913744
Source of the keplerian elements: AFSPC